Airfield :
LOGIN :

Register | Disclaimer

   EN    FR    IT 

 










Legend :    VFR   Marginal VFR   IFR   Intensive IFR   Very Intensive IFR
Visi :
Ceiling :
>= 8 km
>= 3000ft
5 to 8 km
1000 to 3000 ft
1500m to 5 km
500 to 1000 ft
800 to 1500m
200 to 500 ft
< 800m
< 200 ft
Symbols :   Thunderstorms  Fog  Heavy snow  Heavy precipitations  Wind > 20 kt
SIGMETs :     Misc.  Thunderstorms  Icing  Turbulence  Mountain Waves  Volcanic Ashes







- Airport Elevation : 1516 ft
- IATA code : AGB


EDMA - Augsburg

CURRENT METAR :
  • 240920Z 30011KT CAVOK 17/06 Q1023

EXPIRED METARs :
  • 240850Z 30012KT 270V330 CAVOK 17/06 Q1023
  • 240820Z 29011KT 260V330 CAVOK 16/07 Q1023
  • 240750Z 30011KT 270V340 CAVOK 15/07 Q1023
  • 240720Z 32013KT CAVOK 15/08 Q1023

TAF TAF EDMA
Valid from the 24 at 09:00 until the 24 at 18:00 UTC


240800Z 2409/2418 30010KT 9999 SCT040
No reported NOTAMs for that airfield.



MET'MAP, your aeronautical weather chart ! - Copyright ORBIFLY December 2007 - Disclaimer

ORBIFLY MET'MAP TEAM :

Programming & Development : Alexandra Zaïnal
Concept & Development : Baudouin d'Aumeries
Co-Development & Prog : Marc-Olivier Méhu
Technical & hardware support : Manuel Goepfert

Contact : metmap@orbifly.com




SOURCES & CREDITS :

   NOAA